Ozona, TX

8:42 PM CST on February 22, 2017 (GMT -0600)
Ozona Municipal

Weather History for KOZA - November, 2013

Change the Weather History Date:

Sunday, November 24, 2013

  Actual Average Record
Temperature  
Mean Temperature 32 °F -  
Max Temperature 32 °F 64 °F 71 °F (2011)
Min Temperature 32 °F 39 °F 30 °F (2014)
Degree Days  
Heating Degree Days 33    
Moisture  
Dew Point 32 °F    
Average Humidity 100    
Maximum Humidity 100    
Minimum Humidity 93    
Precipitation  
Precipitation 0.49 in - - ()
Sea Level Pressure  
Sea Level Pressure 30.40 in    
Wind  
Wind Speed 10 mph (NE)    
Max Wind Speed 18 mph    
Max Gust Speed 26 mph    
Visibility 7 miles    
Events Rain , Snow , Thunderstorm    
Averages and records for this station are not official NWS values.
T = Trace of Precipitation, MM = Missing Value Source: NWS Daily Summary

Daily Weather History Graph

Daily Weather History Graph

Search for Another Location

Airport or City:

Trip Planner

Search our weather history database for the weather conditions in past years. The results will help you decide how hot, cold, wet, or windy it might be!

Date:

Astronomy

Nov. 24, 2013 Rise Set
Actual Time 7:19 AM CST 5:43 PM CST
Civil Twilight 6:53 AM CST 6:09 PM CST
Nautical Twilight 6:23 AM CST 6:39 PM CST
Astronomical Twilight 5:54 AM CST 7:08 PM CST
Moon 11:58 PM CST (11/24) 12:19 PM CST (11/24)
Length of Visible Light 11h 16m
Length of Day
10h 24m
Waning Gibbous, 60% of the Moon is Illuminated
Nov 24
Waning Gibbous
Nov 25
Last Quarter
Dec 2
New
Dec 9
First Quarter
Dec 17
Full

Hourly Weather History & Observations

Time (CST) Temp. Windchill Dew Point Humidity Pressure Visibility Wind Dir Wind Speed Gust Speed Precip Events Conditions
12:15 AM 32.0 °F 23.6 °F 32.0 °F 100% 30.53 in 3.0 mi North 10.4 mph 16.1 mph 0.01 in   Overcast
12:35 AM 32.0 °F 25.6 °F 32.0 °F 100% 30.52 in 2.5 mi North 6.9 mph - 0.04 in Snow Light Snow
12:55 AM 32.0 °F 21.6 °F 32.0 °F 100% 30.52 in 3.0 mi North 15.0 mph - 0.05 in   Overcast
1:15 AM 32.0 °F 24.2 °F 30.2 °F 93% 30.51 in 4.0 mi North 9.2 mph - 0.01 in   Overcast
1:35 AM 32.0 °F 22.5 °F 30.2 °F 93% 30.49 in 5.0 mi NNE 12.7 mph 19.6 mph 0.01 in Snow Light Snow
1:55 AM 32.0 °F 20.5 °F 32.0 °F 100% 30.47 in 2.5 mi NNE 18.4 mph - 0.07 in Snow Light Snow
2:15 AM 32.0 °F 20.5 °F 32.0 °F 100% 30.48 in 3.0 mi NE 18.4 mph 25.3 mph 0.06 in Snow Light Snow
2:35 AM 32.0 °F 21.6 °F 32.0 °F 100% 30.47 in - NE 15.0 mph - N/A   Unknown
2:55 AM 32.0 °F 21.6 °F 32.0 °F 100% 30.47 in 7.0 mi NE 15.0 mph 26.5 mph 0.01 in   Overcast
3:15 AM 32.0 °F 23.0 °F 32.0 °F 100% 30.47 in 7.0 mi NE 11.5 mph 20.7 mph 0.01 in   Overcast
3:35 AM 32.0 °F 22.1 °F 32.0 °F 100% 30.48 in 4.0 mi ENE 13.8 mph 17.3 mph 0.04 in   Overcast
3:55 AM 32.0 °F 21.6 °F 30.2 °F 93% 30.47 in 10.0 mi NE 15.0 mph 20.7 mph 0.04 in   Overcast
4:15 AM 32.0 °F 22.5 °F 32.0 °F 100% 30.47 in 7.0 mi NE 12.7 mph 16.1 mph 0.01 in   Overcast
4:35 AM 32.0 °F 23.0 °F 32.0 °F 100% 30.47 in 4.0 mi NE 11.5 mph 16.1 mph 0.02 in   Overcast
4:55 AM 32.0 °F 22.1 °F 32.0 °F 100% 30.46 in 5.0 mi NE 13.8 mph - 0.02 in   Overcast
5:15 AM 32.0 °F 23.0 °F 32.0 °F 100% 30.46 in 7.0 mi NE 11.5 mph 16.1 mph N/A   Overcast
5:35 AM 32.0 °F 22.1 °F 32.0 °F 100% 30.46 in 7.0 mi NE 13.8 mph 20.7 mph N/A   Overcast
5:55 AM 32.0 °F 23.0 °F 32.0 °F 100% 30.46 in 7.0 mi NE 11.5 mph 17.3 mph N/A   Overcast
6:15 AM 32.0 °F 22.1 °F 32.0 °F 100% 30.46 in 7.0 mi NE 13.8 mph 18.4 mph N/A   Overcast
6:35 AM 32.0 °F 23.0 °F 30.2 °F 93% 30.47 in 7.0 mi ENE 11.5 mph 17.3 mph N/A   Overcast
6:55 AM 32.0 °F 24.2 °F 30.2 °F 93% 30.47 in 7.0 mi ENE 9.2 mph 17.3 mph N/A   Overcast
7:15 AM 32.0 °F 25.6 °F 32.0 °F 100% 30.47 in 5.0 mi NE 6.9 mph - N/A   Overcast
7:35 AM 32.0 °F 23.0 °F 32.0 °F 100% 30.47 in 4.0 mi NE 11.5 mph - N/A   Overcast
7:55 AM 32.0 °F 24.2 °F 32.0 °F 100% 30.47 in 4.0 mi NE 9.2 mph - N/A   Overcast
8:15 AM 32.0 °F 22.5 °F 32.0 °F 100% 30.47 in 5.0 mi ENE 12.7 mph 17.3 mph N/A   Overcast
8:35 AM 32.0 °F 23.6 °F 32.0 °F 100% 30.47 in 3.0 mi ENE 10.4 mph - N/A   Overcast
8:55 AM 32.0 °F 22.1 °F 32.0 °F 100% 30.47 in 5.0 mi ENE 13.8 mph 17.3 mph N/A   Mist
9:15 AM 32.0 °F 23.6 °F 32.0 °F 100% 30.46 in 7.0 mi ENE 10.4 mph - N/A   Overcast
9:35 AM 32.0 °F 23.0 °F 32.0 °F 100% 30.47 in 10.0 mi ENE 11.5 mph - N/A   Overcast
9:55 AM 32.0 °F 26.4 °F 32.0 °F 100% 30.48 in 10.0 mi East 5.8 mph - N/A   Overcast
10:15 AM 32.0 °F 26.4 °F 32.0 °F 100% 30.47 in 10.0 mi East 5.8 mph - N/A   Overcast
10:35 AM 32.0 °F 24.2 °F 32.0 °F 100% 30.47 in 4.0 mi East 9.2 mph - N/A   Overcast
10:55 AM 32.0 °F 24.2 °F 32.0 °F 100% 30.47 in 2.5 mi East 9.2 mph - N/A Thunderstorm Thunderstorm
11:15 AM 32.0 °F 24.2 °F 32.0 °F 100% 30.46 in 3.0 mi East 9.2 mph - N/A Snow Light Snow
11:35 AM 32.0 °F 27.5 °F 32.0 °F 100% 30.45 in 1.2 mi East 4.6 mph - 0.05 in Snow Light Snow
11:55 AM 32.0 °F 24.8 °F 32.0 °F 100% 30.43 in 10.0 mi ENE 8.1 mph - 0.05 in   Overcast
12:15 PM 32.0 °F 24.2 °F 32.0 °F 100% 30.42 in 10.0 mi ENE 9.2 mph - N/A   Overcast
12:35 PM 32.0 °F 24.8 °F 32.0 °F 100% 30.40 in 10.0 mi East 8.1 mph - N/A   Overcast
12:55 PM 32.0 °F 26.4 °F 32.0 °F 100% 30.39 in 10.0 mi East 5.8 mph - N/A   Overcast
1:15 PM 32.0 °F 26.4 °F 32.0 °F 100% 30.38 in 10.0 mi East 5.8 mph - N/A   Overcast
1:35 PM 32.0 °F 25.6 °F 32.0 °F 100% 30.37 in 10.0 mi East 6.9 mph - N/A   Overcast
1:55 PM 32.0 °F 25.6 °F 32.0 °F 100% 30.35 in 10.0 mi East 6.9 mph - N/A   Overcast
2:15 PM 32.0 °F 27.5 °F 32.0 °F 100% 30.35 in 10.0 mi ENE 4.6 mph - N/A   Overcast
2:35 PM 32.0 °F 24.2 °F 32.0 °F 100% 30.35 in 10.0 mi ENE 9.2 mph - N/A   Overcast
2:55 PM 32.0 °F 25.6 °F 32.0 °F 100% 30.34 in 10.0 mi East 6.9 mph - N/A   Overcast
3:15 PM 32.0 °F 27.5 °F 32.0 °F 100% 30.34 in 10.0 mi ENE 4.6 mph - N/A   Overcast
3:35 PM 32.0 °F 28.7 °F 32.0 °F 100% 30.34 in 10.0 mi East 3.5 mph - N/A   Overcast
3:55 PM 32.0 °F 27.5 °F 32.0 °F 100% 30.34 in 10.0 mi East 4.6 mph - N/A   Overcast
4:15 PM 32.0 °F 26.4 °F 32.0 °F 100% 30.33 in 10.0 mi ENE 5.8 mph - N/A   Overcast
4:35 PM 32.0 °F 26.4 °F 32.0 °F 100% 30.33 in 10.0 mi NE 5.8 mph - N/A   Overcast
4:55 PM 32.0 °F 26.4 °F 32.0 °F 100% 30.33 in 10.0 mi ENE 5.8 mph - N/A   Overcast
5:15 PM 32.0 °F 26.4 °F 32.0 °F 100% 30.33 in 10.0 mi ENE 5.8 mph - N/A   Overcast
5:35 PM 32.0 °F 25.6 °F 32.0 °F 100% 30.32 in 10.0 mi NE 6.9 mph - N/A   Overcast
5:55 PM 32.0 °F 26.4 °F 32.0 °F 100% 30.32 in 10.0 mi NE 5.8 mph - N/A   Overcast
6:15 PM 32.0 °F 24.2 °F 32.0 °F 100% 30.30 in 10.0 mi NE 9.2 mph - N/A   Overcast
6:35 PM - - - N/A% - - North - - N/A   Unknown
6:55 PM 32.0 °F 27.5 °F 32.0 °F 100% 30.31 in 10.0 mi ENE 4.6 mph - N/A   Overcast
7:15 PM 32.0 °F 26.4 °F 32.0 °F 100% 30.32 in 10.0 mi ENE 5.8 mph - N/A   Overcast
7:35 PM 32.0 °F 25.6 °F 32.0 °F 100% 30.32 in 7.0 mi NE 6.9 mph - N/A   Overcast
7:55 PM 32.0 °F 28.7 °F 32.0 °F 100% 30.30 in 7.0 mi NNE 3.5 mph - 0.01 in   Overcast
8:15 PM 32.0 °F 27.5 °F 32.0 °F 100% 30.32 in 3.0 mi NNE 4.6 mph - 0.04 in Snow Light Snow
8:35 PM 32.0 °F - 32.0 °F 100% 30.33 in 10.0 mi Calm Calm - 0.05 in   Mostly Cloudy
8:55 PM 32.0 °F 25.6 °F 32.0 °F 100% 30.30 in 1.5 mi NNE 6.9 mph - 0.14 in Snow , Thunderstorm Light Thunderstorms and Snow
9:15 PM 32.0 °F - 32.0 °F 100% 30.28 in 5.0 mi Calm Calm - 0.02 in Rain Light Rain
9:35 PM 32.0 °F - 32.0 °F 100% 30.30 in 5.0 mi Calm Calm - 0.04 in   Scattered Clouds
9:55 PM 32.0 °F - 32.0 °F 100% 30.30 in 10.0 mi Calm Calm - 0.05 in   Clear
10:15 PM 32.0 °F - 32.0 °F 100% 30.30 in 10.0 mi Calm Calm - N/A Thunderstorm Clear
10:35 PM 32.0 °F - 32.0 °F 100% 30.30 in 10.0 mi Calm Calm - N/A Thunderstorm Mostly Cloudy
10:55 PM 32.0 °F - 32.0 °F 100% 30.30 in 10.0 mi Calm Calm - N/A Thunderstorm Mostly Cloudy
11:15 PM 32.0 °F - 32.0 °F 100% 30.29 in 10.0 mi Calm Calm - N/A   Mostly Cloudy
11:35 PM 32.0 °F - 32.0 °F 100% 30.29 in 10.0 mi Calm Calm - N/A   Overcast
11:55 PM 32.0 °F - 32.0 °F 100% 30.28 in 10.0 mi Calm Calm - N/A   Overcast